Coolidge Muni, Coolidge, AZ

10:33 AM MST on November 13, 2019 (GMT -0700)
Coolidge Muni, Coolidge

Weather History for KP08 - October, 2019

Change the Weather History Date:

Wednesday, October 23, 2019

  Actual Average (WUND) Record (WUND)
Temperature  
Mean Temperature 70 °F -  
Max Temperature 87 °F - - (-1)
Min Temperature 53 °F - - (-1)
Cooling Degree Days 5    
Growing Degree Days 20 (Base 50)    
Moisture  
Dew Point 23 °F    
Average Humidity 17    
Maximum Humidity 30    
Minimum Humidity 9    
Precipitation  
Precipitation 0.00 in - - ()
Sea Level Pressure  
Sea Level Pressure 29.91 in    
Wind  
Wind Speed 5 mph ()    
Max Wind Speed 9 mph    
Max Gust Speed 13 mph    
Visibility 9.9 miles    
Events      
Averages and records for this station are not official NWS values.
T = Trace of Precipitation, MM = Missing Value Source: Averaged Metar Reports

Daily Weather History Graph

Daily Weather History Graph

Search for Another Location

Airport or City:

Astronomy

Oct. 23, 2019 Rise Set
Actual Time 6:36 AM MST 5:43 PM MST
Civil Twilight 6:10 AM MST 6:08 PM MST
Nautical Twilight 5:42 AM MST 6:37 PM MST
Astronomical Twilight 5:13 AM MST 7:06 PM MST
Moon 1:21 AM MST (10/23) 3:15 PM MST (10/23)
Length of Visible Light 11h 57m
Length of Day
11h 07m
Waning Crescent, 25% of the Moon is Illuminated
Oct 23
Waning Crescent
Oct 27
New
Nov 4
First Quarter
Nov 12
Full
Nov 19
Last Quarter

Hourly Weather History & Observations

Time (MST) Temp. Dew Point Humidity Pressure Visibility Wind Dir Wind Speed Gust Speed Precip Events Conditions
12:10 AM 60.8 °F 19.4 °F 20% 29.97 in 10.0 mi SE 4.6 mph - N/A   Mostly Cloudy
12:55 AM 60.8 °F 21.2 °F 22% 29.96 in 10.0 mi ESE 8.1 mph - N/A   Mostly Cloudy
1:15 AM 59.0 °F 21.2 °F 23% 29.96 in 10.0 mi ESE 6.9 mph - N/A   Mostly Cloudy
1:30 AM 59.0 °F 21.2 °F 23% 29.97 in 10.0 mi East 6.9 mph - N/A   Scattered Clouds
1:55 AM 59.0 °F 21.2 °F 23% 29.96 in 10.0 mi ESE 8.1 mph - N/A   Clear
2:15 AM 59.0 °F 21.2 °F 23% 29.96 in 10.0 mi ESE 9.2 mph - N/A   Clear
2:35 AM 59.0 °F 21.2 °F 23% 29.95 in 10.0 mi ESE 9.2 mph - N/A   Clear
3:15 AM 60.8 °F 21.2 °F 22% 29.94 in 10.0 mi ESE 8.1 mph - N/A   Partly Cloudy
3:35 AM 59.0 °F 21.2 °F 23% 29.93 in 10.0 mi ESE 8.1 mph - N/A   Clear
4:15 AM 59.0 °F 21.2 °F 23% 29.93 in 10.0 mi ESE 8.1 mph - N/A   Clear
4:35 AM 59.0 °F 21.2 °F 23% 29.94 in 9.0 mi East 9.2 mph - N/A   Clear
4:55 AM 59.0 °F 21.2 °F 23% 29.94 in 10.0 mi ESE 8.1 mph - N/A   Clear
5:15 AM 59.0 °F 23.0 °F 25% 29.94 in 10.0 mi ESE 9.2 mph - N/A   Clear
5:35 AM 57.2 °F 21.2 °F 25% 29.94 in 10.0 mi Calm Calm - N/A   Partly Cloudy
5:55 AM 57.2 °F 21.2 °F 25% 29.94 in 10.0 mi Calm Calm - N/A   Mostly Cloudy
6:10 AM 55.4 °F 21.2 °F 26% 29.95 in 10.0 mi Calm Calm - N/A   Mostly Cloudy
6:35 AM 53.6 °F 23.0 °F 30% 29.94 in 10.0 mi Calm Calm - N/A   Clear
6:50 AM 55.4 °F 23.0 °F 29% 29.94 in 9.0 mi Calm Calm - N/A   Clear
7:15 AM 55.4 °F 21.2 °F 26% 29.95 in 10.0 mi Calm Calm - N/A   Clear
7:35 AM 59.0 °F 23.0 °F 25% 29.95 in 10.0 mi Calm Calm - N/A   Clear
7:55 AM 60.8 °F 23.0 °F 23% 29.96 in 9.0 mi Calm Calm - N/A   Clear
8:15 AM 64.4 °F 23.0 °F 21% 29.96 in 10.0 mi Calm Calm - N/A   Clear
8:35 AM 66.2 °F 23.0 °F 19% 29.97 in 10.0 mi Calm Calm - N/A   Clear
8:55 AM 68.0 °F 23.0 °F 18% 29.97 in 10.0 mi Calm Calm - N/A   Clear
9:15 AM 69.8 °F 23.0 °F 17% 29.98 in 10.0 mi Calm Calm - N/A   Clear
9:35 AM 71.6 °F 24.8 °F 17% 29.98 in 10.0 mi Variable 3.5 mph - N/A   Clear
9:55 AM 73.4 °F 26.6 °F 18% 29.98 in 10.0 mi Calm Calm - N/A   Clear
10:15 AM 73.4 °F 26.6 °F 18% 29.97 in 10.0 mi Calm Calm - N/A   Clear
10:35 AM 75.2 °F 24.8 °F 15% 29.97 in 10.0 mi Calm Calm - N/A   Clear
10:50 AM 77.0 °F 26.6 °F 16% 29.96 in 10.0 mi Calm Calm - N/A   Clear
11:10 AM 78.8 °F 24.8 °F 14% 29.95 in 10.0 mi Calm Calm - N/A   Clear
11:35 AM 80.6 °F 24.8 °F 13% 29.94 in 10.0 mi Calm Calm - N/A   Clear
11:55 AM 82.4 °F 24.8 °F 12% 29.92 in 10.0 mi Calm Calm - N/A   Clear
12:15 PM 84.2 °F 23.0 °F 11% 29.91 in 10.0 mi Calm Calm - N/A   Clear
12:30 PM 84.2 °F 23.0 °F 11% 29.91 in 10.0 mi Calm Calm - N/A   Clear
12:55 PM 86.0 °F 24.8 °F 11% 29.90 in 10.0 mi Variable 3.5 mph - N/A   Clear
1:10 PM 86.0 °F 24.8 °F 11% 29.89 in 10.0 mi Variable 4.6 mph - N/A   Clear
1:30 PM 86.0 °F 24.8 °F 11% 29.88 in 10.0 mi Variable 6.9 mph 12.7 mph N/A   Clear
1:50 PM 87.8 °F 24.8 °F 10% 29.88 in 10.0 mi NW 6.9 mph - N/A   Clear
2:15 PM 87.8 °F 23.0 °F 9% 29.86 in 10.0 mi WSW 6.9 mph - N/A   Clear
2:35 PM 87.8 °F 23.0 °F 9% 29.86 in 10.0 mi NW 6.9 mph - N/A   Clear
2:55 PM 87.8 °F 23.0 °F 9% 29.86 in 10.0 mi Variable 5.8 mph - N/A   Clear
3:15 PM 87.8 °F 23.0 °F 9% 29.85 in 10.0 mi SW 3.5 mph - N/A   Clear
3:35 PM 87.8 °F 23.0 °F 9% 29.85 in 10.0 mi West 9.2 mph - N/A   Clear
3:50 PM 87.8 °F 23.0 °F 9% 29.85 in 10.0 mi West 8.1 mph - N/A   Clear
4:15 PM 87.8 °F 23.0 °F 9% 29.84 in 10.0 mi West 6.9 mph - N/A   Clear
4:35 PM 87.8 °F 23.0 °F 9% 29.84 in 10.0 mi West 6.9 mph - N/A   Clear
4:55 PM 87.8 °F 24.8 °F 10% 29.84 in 10.0 mi West 4.6 mph - N/A   Clear
5:15 PM 86.0 °F 26.6 °F 12% 29.83 in 10.0 mi West 3.5 mph - N/A   Clear
5:35 PM 84.2 °F 26.6 °F 12% 29.84 in 10.0 mi NW 4.6 mph - N/A   Clear
5:55 PM 80.6 °F 26.6 °F 14% 29.84 in 10.0 mi NW 5.8 mph - N/A   Clear
6:15 PM 78.8 °F 26.6 °F 15% 29.84 in 10.0 mi NW 5.8 mph - N/A   Clear
6:35 PM 78.8 °F 26.6 °F 15% 29.84 in 10.0 mi WNW 3.5 mph - N/A   Clear
6:55 PM 77.0 °F 24.8 °F 14% 29.84 in 10.0 mi Calm Calm - N/A   Clear
7:15 PM 77.0 °F 24.8 °F 14% 29.85 in 10.0 mi Calm Calm - N/A   Clear
7:35 PM 75.2 °F 24.8 °F 15% 29.86 in 7.0 mi NE 4.6 mph - N/A   Clear
7:55 PM 71.6 °F 23.0 °F 16% 29.86 in 8.0 mi Calm Calm - N/A   Clear
8:15 PM 69.8 °F 23.0 °F 17% 29.87 in 10.0 mi East 4.6 mph - N/A   Clear
8:35 PM 68.0 °F 21.2 °F 17% 29.87 in 10.0 mi ESE 8.1 mph - N/A   Partly Cloudy
8:55 PM 68.0 °F 21.2 °F 17% 29.87 in 10.0 mi ESE 8.1 mph - N/A   Scattered Clouds
9:15 PM 68.0 °F 21.2 °F 17% 29.88 in 10.0 mi ESE 8.1 mph - N/A   Partly Cloudy
9:35 PM 66.2 °F 23.0 °F 19% 29.88 in 10.0 mi SE 5.8 mph - N/A   Partly Cloudy
9:55 PM 66.2 °F 23.0 °F 19% 29.88 in 10.0 mi ESE 8.1 mph - N/A   Clear
10:15 PM 66.2 °F 23.0 °F 19% 29.88 in 10.0 mi East 8.1 mph - N/A   Clear
10:35 PM 64.4 °F 23.0 °F 21% 29.88 in 10.0 mi ESE 9.2 mph - N/A   Clear
10:55 PM 64.4 °F 23.0 °F 21% 29.88 in 10.0 mi ESE 9.2 mph - N/A   Partly Cloudy
11:15 PM 64.4 °F 23.0 °F 21% 29.88 in 10.0 mi ESE 9.2 mph - N/A   Light Drizzle
11:35 PM 64.4 °F 23.0 °F 21% 29.88 in 10.0 mi SE 9.2 mph - N/A   Partly Cloudy
11:55 PM 64.4 °F 23.0 °F 21% 29.89 in 10.0 mi ESE 9.2 mph - N/A   Partly Cloudy